Location: Unspecified
(52.4292°N, 19.3359°E)
Time: 00:42:24
(UTC+02:00)

Vanguard 1 Rocket - Pass Details

Date: 23 May 2024
Orbit: 649 x 4221 km, 34.3° (Epoch: 13 June)

Event Time Altitude Azimuth Distance (km) Brightness Sun altitude
Rises 10:13:20 0° 232° (SW) 8,096 12.1 47.6°
Reaches altitude 10° 10:20:16 10° 225° (SW) 6,650 11.8 48.5°
Maximum altitude 10:36:01 32° 173° (S) 3,700 11.5 50.3°
Drops below altitude 10° 10:45:34 10° 116° (ESE) 4,016 11.5 51.4°
Sets 10:48:32 0° 105° (ESE) 4,614 11.5 51.7°
